Edinburg, TX

1:21 PM CST on December 09, 2016 (GMT -0600)
Edinburg

Weather History for KEBG - May, 2012

Change the Weather History Date:

Thursday, May 3, 2012

  Actual Average (KMFE) Record (KMFE)
Temperature  
Mean Temperature 84 °F -  
Max Temperature 94 °F 88 °F 107 °F (1984)
Min Temperature 73 °F 68 °F 51 °F (2004)
Cooling Degree Days 18    
Growing Degree Days 34 (Base 50)    
Moisture  
Dew Point 70 °F    
Average Humidity 68    
Maximum Humidity 91    
Minimum Humidity 40    
Precipitation  
Precipitation 0.00 in - - ()
Sea Level Pressure  
Sea Level Pressure 29.88 in    
Wind  
Wind Speed 8 mph (SE)    
Max Wind Speed 16 mph    
Max Gust Speed 23 mph    
Visibility 9 miles    
Events      
Averages and records for this station are not official NWS values.
T = Trace of Precipitation, MM = Missing Value Source: NWS Daily Summary

Daily Weather History Graph

Daily Weather History Graph

Search for Another Location

Airport or City:

Trip Planner

Search our weather history database for the weather conditions in past years. The results will help you decide how hot, cold, wet, or windy it might be!

Date:

Astronomy

May. 03, 2012 Rise Set
Actual Time 6:52 AM CDT 8:06 PM CDT
Civil Twilight 6:28 AM CDT 8:30 PM CDT
Nautical Twilight 5:59 AM CDT 8:59 PM CDT
Astronomical Twilight 5:29 AM CDT 9:29 PM CDT
Moon 5:42 PM CDT (5/3) 4:43 AM CDT (5/3)
Length of Visible Light 14h 02m
Length of Day
13h 13m
Waxing Gibbous, 91% of the Moon is Illuminated
May 3
Waxing Gibbous
May 5
Full
May 12
Last Quarter
May 20
New
May 28
First Quarter

Hourly Weather History & Observations

Time (CDT) Temp. Heat Index Dew Point Humidity Pressure Visibility Wind Dir Wind Speed Gust Speed Precip Events Conditions
12:15 AM 78.1 °F - 70.7 °F 78% 29.90 in 7.0 mi SE 6.9 mph - N/A   Clear
12:35 AM 77.9 °F - 70.7 °F 78% 29.90 in 10.0 mi SE 5.8 mph - N/A   Clear
12:55 AM 77.0 °F - 70.7 °F 81% 29.90 in 7.0 mi SE 6.9 mph - N/A   Clear
1:15 AM 76.3 °F - 70.7 °F 83% 29.89 in 10.0 mi SE 5.8 mph - N/A   Clear
1:35 AM 75.7 °F - 70.3 °F 83% 29.88 in 10.0 mi SE 5.8 mph - N/A   Clear
1:55 AM 75.9 °F - 70.5 °F 83% 29.87 in 7.0 mi SE 6.9 mph - N/A   Scattered Clouds
2:15 AM 76.1 °F - 70.9 °F 84% 29.87 in 10.0 mi SE 5.8 mph - N/A   Clear
2:35 AM 75.9 °F - 71.1 °F 85% 29.86 in 7.0 mi SE 5.8 mph - N/A   Scattered Clouds
2:55 AM 75.6 °F - 71.4 °F 87% 29.85 in 7.0 mi ESE 6.9 mph - N/A   Scattered Clouds
3:15 AM 75.6 °F - 71.6 °F 87% 29.85 in 7.0 mi ESE 5.8 mph - N/A   Scattered Clouds
3:35 AM 76.1 °F - 71.8 °F 86% 29.85 in 10.0 mi East 4.6 mph - N/A   Overcast
3:55 AM 76.3 °F - 72.1 °F 87% 29.85 in 7.0 mi ESE 5.8 mph - N/A   Overcast
4:15 AM 76.5 °F - 72.0 °F 86% 29.86 in 7.0 mi ESE 4.6 mph - N/A   Overcast
4:35 AM 76.3 °F - 72.0 °F 86% 29.85 in 7.0 mi ESE 4.6 mph - N/A   Overcast
4:55 AM 76.1 °F - 71.8 °F 86% 29.86 in 7.0 mi East 4.6 mph - N/A   Overcast
5:15 AM 76.1 °F - 71.8 °F 86% 29.86 in 7.0 mi SE 3.5 mph - N/A   Overcast
5:35 AM 76.1 °F - 71.8 °F 86% 29.86 in 10.0 mi ESE 3.5 mph - N/A   Overcast
5:55 AM 75.6 °F - 71.6 °F 87% 29.86 in 7.0 mi ESE 3.5 mph - N/A   Mostly Cloudy
6:15 AM 75.2 °F - 71.4 °F 88% 29.86 in 7.0 mi ESE 4.6 mph - N/A   Scattered Clouds
6:35 AM 74.1 °F - 70.5 °F 88% 29.87 in 7.0 mi SSE 3.5 mph - N/A   Scattered Clouds
6:55 AM 73.4 °F - 70.3 °F 90% 29.88 in 7.0 mi Calm Calm - N/A   Scattered Clouds
7:15 AM 73.6 °F - 70.7 °F 91% 29.89 in 5.0 mi Calm Calm - N/A   Clear
7:35 AM 73.9 °F - 71.1 °F 91% 29.89 in 5.0 mi ESE 3.5 mph - N/A   Scattered Clouds
7:55 AM 74.5 °F - 71.4 °F 90% 29.89 in 7.0 mi ESE 4.6 mph - N/A   Clear
8:35 AM 76.6 °F - 72.5 °F 87% 29.90 in 7.0 mi ESE 6.9 mph - N/A   Scattered Clouds
8:55 AM 78.4 °F - 72.5 °F 82% 29.91 in 10.0 mi SE 9.2 mph - N/A   Scattered Clouds
9:15 AM 80.1 °F 84.1 °F 72.5 °F 78% 29.92 in 7.0 mi SE 10.4 mph - N/A   Mostly Cloudy
9:35 AM 80.8 °F 85.1 °F 72.1 °F 75% 29.93 in 7.0 mi SSE 8.1 mph - N/A   Overcast
9:55 AM 81.9 °F 86.4 °F 71.8 °F 71% 29.93 in 7.0 mi SSE 10.4 mph - N/A   Mostly Cloudy
10:15 AM 83.3 °F 87.9 °F 71.1 °F 66% 29.93 in 7.0 mi SSE 10.4 mph - N/A   Mostly Cloudy
10:35 AM 84.4 °F 89.0 °F 70.7 °F 63% 29.94 in 7.0 mi South 10.4 mph - N/A   Overcast
10:55 AM 85.1 °F 90.1 °F 70.7 °F 62% 29.94 in 10.0 mi SSE 12.7 mph 17.3 mph N/A   Mostly Cloudy
11:15 AM 86.0 °F 90.4 °F 69.8 °F 58% 29.93 in 10.0 mi SE 9.2 mph - N/A   Scattered Clouds
11:35 AM 86.7 °F 91.0 °F 69.3 °F 56% 29.93 in 10.0 mi South 11.5 mph 17.3 mph N/A   Scattered Clouds
11:55 AM 88.0 °F 92.1 °F 68.9 °F 53% 29.92 in 10.0 mi SE 11.5 mph 17.3 mph N/A   Scattered Clouds
12:15 PM 89.1 °F 93.3 °F 68.7 °F 51% 29.91 in 10.0 mi SSE 9.2 mph - N/A   Scattered Clouds
12:35 PM 89.2 °F 93.6 °F 68.7 °F 51% 29.90 in 10.0 mi SSE 11.5 mph 18.4 mph N/A   Mostly Cloudy
12:55 PM 90.3 °F 94.3 °F 68.4 °F 48% 29.90 in 10.0 mi SSE 11.5 mph 17.3 mph N/A   Scattered Clouds
1:15 PM 91.4 °F 95.4 °F 68.2 °F 46% 29.90 in 10.0 mi South 11.5 mph 23.0 mph N/A   Mostly Cloudy
1:35 PM 91.2 °F 95.5 °F 68.2 °F 47% 29.89 in 10.0 mi SSE 8.1 mph 16.1 mph N/A   Mostly Cloudy
2:15 PM 92.5 °F 96.4 °F 67.5 °F 44% 29.88 in 10.0 mi SSE 13.8 mph - N/A   Mostly Cloudy
2:35 PM 92.5 °F 96.9 °F 68.0 °F 45% 29.87 in 10.0 mi SE 13.8 mph 19.6 mph N/A   Scattered Clouds
3:15 PM 92.7 °F 96.7 °F 67.6 °F 44% 29.86 in 10.0 mi SSE 12.7 mph 17.3 mph N/A   Scattered Clouds
3:35 PM 94.3 °F 98.7 °F 67.6 °F 42% 29.86 in 10.0 mi SE 13.8 mph 20.7 mph N/A   Scattered Clouds
3:55 PM 93.6 °F 97.4 °F 67.5 °F 42% 29.85 in 10.0 mi SSE 12.7 mph 19.6 mph N/A   Scattered Clouds
4:15 PM 94.3 °F 97.7 °F 66.7 °F 40% 29.83 in 10.0 mi SE 13.8 mph 19.6 mph N/A   Scattered Clouds
4:35 PM 93.2 °F 96.2 °F 66.6 °F 41% 29.83 in 10.0 mi SSE 12.7 mph - N/A   Clear
4:55 PM 93.9 °F 97.0 °F 66.4 °F 40% 29.82 in 10.0 mi SE 13.8 mph 19.6 mph N/A   Scattered Clouds
5:15 PM 94.1 °F 97.9 °F 67.1 °F 41% 29.81 in 10.0 mi SE 13.8 mph 19.6 mph N/A   Clear
5:35 PM 92.8 °F 96.1 °F 66.9 °F 42% 29.81 in 10.0 mi SE 15.0 mph - N/A   Clear
5:55 PM 91.9 °F 95.4 °F 67.5 °F 44% 29.81 in 10.0 mi SE 16.1 mph - N/A   Scattered Clouds
6:15 PM 91.2 °F 94.6 °F 67.3 °F 45% 29.82 in 10.0 mi SE 13.8 mph 17.3 mph N/A   Scattered Clouds
6:35 PM 90.5 °F 94.2 °F 67.8 °F 47% 29.82 in 10.0 mi SSE 13.8 mph - N/A   Clear
6:55 PM 89.8 °F 93.8 °F 68.4 °F 49% 29.84 in 10.0 mi SE 13.8 mph - N/A   Clear
7:15 PM 89.2 °F 93.2 °F 68.5 °F 50% 29.85 in 10.0 mi SE 15.0 mph - N/A   Clear
7:35 PM 88.0 °F 92.1 °F 68.9 °F 53% 29.85 in 10.0 mi SE 13.8 mph 17.3 mph N/A   Clear
7:55 PM 86.9 °F 91.3 °F 69.3 °F 56% 29.86 in 10.0 mi SE 10.4 mph - N/A   Clear
8:15 PM 85.5 °F 90.1 °F 70.0 °F 60% 29.87 in 10.0 mi ESE 12.7 mph - N/A   Clear
8:35 PM 84.2 °F 88.7 °F 70.3 °F 63% 29.88 in 10.0 mi ESE 11.5 mph - N/A   Clear
8:55 PM 83.3 °F 87.4 °F 70.2 °F 64% 29.89 in 10.0 mi ESE 12.7 mph - N/A   Clear
9:15 PM 82.6 °F 86.6 °F 70.3 °F 66% 29.91 in 10.0 mi ESE 12.7 mph - N/A   Clear
9:35 PM 81.7 °F 85.8 °F 70.9 °F 70% 29.91 in 10.0 mi ESE 15.0 mph - N/A   Clear
9:55 PM 81.0 °F 85.1 °F 71.6 °F 73% 29.91 in 10.0 mi East 12.7 mph - N/A   Clear
10:15 PM 80.4 °F 84.4 °F 71.8 °F 75% 29.92 in 10.0 mi ESE 12.7 mph - N/A   Clear
10:35 PM 79.9 °F - 71.6 °F 76% 29.94 in 7.0 mi ESE 11.5 mph - N/A   Clear
10:55 PM 79.7 °F - 71.8 °F 77% 29.94 in 7.0 mi ESE 12.7 mph - N/A   Clear
11:15 PM 79.3 °F - 71.6 °F 77% 29.93 in 7.0 mi ESE 11.5 mph - N/A   Clear
11:35 PM 79.0 °F - 71.8 °F 78% 29.94 in 7.0 mi ESE 10.4 mph - N/A   Clear
11:55 PM 78.6 °F - 71.8 °F 79% 29.93 in 7.0 mi East 11.5 mph - N/A   Clear